User: anonymous   Login
Location: Zagreb
(45.8000°N, 16.0000°E)
Time: 03:26:41
(UTC+01:00)
Language:

Transit 4A - Orbit

View from above orbital plane
View from above orbital plane
View from above satellite
View from above satellite

Ground track
Ground track

The orbit data is extracted from the following two-line orbital elements,

1 00116U 61015A   22027.58202748 -.00000024  00000-0  40669-4 0  9996
2 00116  66.8078 207.9879 0080568 312.7857  46.6465 13.91809318 73786
Epoch (UTC): 27 January 2022 13:58:07
Eccentricity: 0.0080568
inclination: 66.8078°
perigee height: 863 km
apogee height: 981 km
right ascension of ascending node: 207.9879°
argument of perigee: 312.7857°
revolutions per day: 13.91809318
mean anomaly at epoch: 46.6465°
orbit number at epoch: 7378

The dashed part of the orbit path shows where the satellite is in the earth's shadow,  

DLR